FO-99 (43937 NORAD) Tracking and Keplerian Element Data

This shows tracking and keplerian element data for the satellite.

Feedback or suggestion? Click here.




ElementValue
Catalog43937
NameFO-99
Epoch Orbit529
Epoch Day52.84381685
Epoch Year2019
RAAN114.1481
Inclination97.2941
Eccentricity0.0026125
Argument of Perigee121.4819
Mean Anonmoly328.6542
Mean Motion15.23261058
Decay Rate9.56E-06
L11 43937U 19003F 19052.84381685 .00000956 00000-0 42904-4 0 9992
L22 43937 97.2941 114.1481 0026125 121.4819 328.6542 15.23261058 5291

Live tracking and technical data element details for FO-99 (NORAD 43937). FO-99 can be tracked NOW for your location showing map with azimuth and elevation plus other details from your city location.

Track the satellite on the map from your city or location and see movement details for azimuth, elevation, latitude, longitude, range, height, and movement on the map or in text.







IsCatalogInMostPopularTable: catalog: 43937, numindb: 60
Update: records affected: 1



GetName: 43937 FO-99

Hit Count: updated at: Sat, 23 Feb 2019 17:33:07 GMT